Погода в Сортавале

Погода в Сортавале : погода сейчас, прогноз погоды и архив. Всё, что Вы хотите узнать о погоде в Сортавале!

Хотите узнать прогноз погоды в Сортавале? Тогда Вам сюда: Погода в Сортавале

Поиск расширенной информации на нашем сайте:

Другие новости

Новости СМИ2

Главная страница сайта

Новости сайта

03.07.2017

Напоминаем, что на нашем специализированном сайте Метеоцентр.Азия вы можете получить высокодетализированные автоматические прогнозы погоды по пунктам России, СНГ и мира в авиационном формате (включающие направление и скорость ветра, видимость, явления погоды, количество и форму облачности, нижнюю и верхнюю границу облачности).

Рекомендуем: Детальное описание автоваз официальный у нас.

Погода в Сортавале - сегодня

Время (UTC), дата Ветер
(°,м/с) 
Видим.   Явления Облачность Т
(°С)
Тd
(°С)
f(%) Тe
(°С)
Pmin
(гПа)
dP
(гПа)
Po
(мм)
O2
(г/м3)
Тmin Tmax R s Состояние
почвы
03 21.09.17 070 (В) 50000 м    9/5 600 м средняя 
[Sc|Ac trans]
+7.8 +5.2 84 +7  1030.3  1.7  771  301  +7.8         
06 21.09.17 080 (В) 20000 м    10/10 800 м 
[Sc]
+8.4 +5.5 82 +8  1031.6  1.4  772  301  +7.8        влажная 
09 21.09.17 070 (В) 50000 м    9/8 960 м средняя, верхняя 
[Sc|Ac trans|Ci fib]
+10.2 +6.1 76 +9  1032.4  0.8  773  299           
12 21.09.17 080 (В) 20000 м    9/8 800 м средняя, верхняя 
[Sc|Ac trans|Ci fib]
+11.4 +6.4 71 +11  1033.5  1.1  773  298           
15 21.09.17 080 (В) 50000 м    9/8 660 м средняя, верхняя 
[Sc|Ac trans|Ci fib]
+8.8 +4.3 73 +7  1034  0.5  774  301           
18 21.09.17 100 (В) 50000 м    10/10 700 м 
[Sc]
+8.2 +4 75 +7  1034.8  0.8  774  302    +11.8       
21 21.09.17 080 (В) 50000 м    10/10 750 м 
[Sc]
+7.9 +4.5 79 +7  1035  0.2  775  303           
00 22.09.17 100 (В) 50000 м    10/10 800 м 
[Sc]
+8.1 +4.8 80 +7  1034.9  0.1  774  302           
03 22.09.17 090 (В) 50000 м    10/10 800 м 
[Sc]
+7.8 +5.1 83 +7  1034.6  -0.4  774  303  +7.6         
06 22.09.17 110 (В) 28000 м  в посл. час ливневой дождь  10/10 540 м кучево-дожд. 
[Cb cap]
+7.9 +5.7 86 +8  1034.9  0.3  774  302  +7.6    0.0    влажная 
09 22.09.17 070 (В) 15000 м  слаб. ливневой дождь  10/10 500 м кучево-дожд. 
[Cb cap]
+8 +6.6 91 +7  1034.1  -0.7  774  302           
12 22.09.17 070 (В) 18000 м  слаб. ливневой дождь  10/10 500 м кучево-дожд. 
[Cb cap]
+8.8 +7.5 92 +9  1034  -0.1  774  301           
15 22.09.17 060 (СВ) 21000 м  {ливн. осадки}  10/10 600 м кучево-дожд. 
[Cb cap]
+9 +7.6 91 +9  1033.5  -0.5  773  300      17     
18 22.09.17 070 (В) 40000 м  {ливн. осадки}  10/10 630 м 
[Sc]
+8.9 +7.1 88 +8  1033.7  0.2  774  301    +9.3  18     
21 22.09.17 060 (СВ) 50000 м    9/4 600 м средняя 
[Sc|Ac trans]
+7.6 +5.9 89 +9  1033.4  -0.3  773  302           
00 23.09.17 360 (С) 30000 м    4/0 средняя 
[Ac trans]
+6.9 +5.6 91 +8  1034.3  0.8  774  303           
03 23.09.17 090 (В) 30000 м    3/0 верхняя 
[Ci fib]
+7.2 +5.7 90 +6  1034.3  774  303  +6.3         
06 23.09.17 090 (В) 20000 м    8/3 600 м средняя, верхняя 
[Sc|Ac trans|Ci fib]
+8.5 +6.3 86 +9  1034.6  0.4  774  302  +6.3        мокрая 
09 23.09.17 110 (В) 20000 м    9/3 600 м средняя, верхняя 
[Sc|Ac trans|Ci fib]
+11.7 +8.1 79 +11  1035.2  0.6  775  298           
12 23.09.17 100 (В) 20000 м    5/0 верхняя 
[Ci fib]
+13.8 +7 63 +13  1035.5  0.3  775  296           
15 23.09.17 160 (Ю) 20000 м    5/0 средняя, верхняя 
[Ac trans|Ci fib]
+12.7 +7.7 72 +14  1035.2  -0.3  775  297           
18 23.09.17 тихо ()   30000 м    9/0 средняя, верхняя 
[Ac trans|Ci fib]
+7.7 +6.5 92 +8  1036.2  0.9  775  303    +14.1       
21 23.09.17 тихо ()   8000 м  дымка  3/0 средняя 
[Ac trans]
+8.5 +7.5 93 +9  1036.5  0.4  776  302           
00 24.09.17 020 (С) 6000 м  дымка  3/0 средняя 
[Ac trans]
+7.1 +6.1 93 +8  1037.3  0.8  776  304           
03 24.09.17 040 (СВ) 3500 м  местами туман поземный  3/0 средняя 
[Ac trans]
+6.3 +5.4 94 +7  1037.5  0.2  776  305  +5.8         
Время (UTC), дата Ветер
(°,м/с) 
Видим.   Явления Облачность Т
(°С)
Тd
(°С)
f(%) Тe
(°С)
Pmin
(гПа)
dP
(гПа)
Po
(мм)
O2
(г/м3)
Тmin Tmax R s Состояние
почвы

Для получения пояснительной информации подведите курсор к названию столбца.

ПОГОДА в Сортавале - архив

Всё, что Вы хотите узнать о погоде в Сортавале - удобно и подробно!

Выберите нужную дату (начиная с 1 января 2015* года) и нажмите кнопку "Найти".
Будут отображены архивные сводки погоды по пункту Сортавала, начиная с указанной даты.


Отображать данные в формате CSV (для использования в таблицах Excel)


Внимание! Наш архив погоды предназначен исключительно для личного некоммерческого использования в познавательных целях. Если Вам необходимы официальные справки о состоянии погоды (для производственных, юридических, коммерческих и т.п. целей), обращайтесь в органы Росгидромета.

*Примечание: данная дата относится к архиву по метеостанциям СССР (Россия, СНГ, Балтия).
Архив по метеостанциям Зарубежной Европы и Азии (кроме Китая) хранится 10 дней, по другим регионам земного шара (Китай, Африка, Америка, Австралия, Океания) - 1 день.

Сортавала - район местоположения метеостанции


Название, широта, долгота, высота метеостанции:
Сортавала 61.7°ш. 30.7°д. 19 м над ур. моря [Российская Федерация]

Дополнительная информация

В oтличие oт бoльшинства пoгoдных сайтoв мы публикуем пoдрoбную метеoинфoрмацию в детальнoм прoфессиoнальнoм фoрмате.

Характеристики температуры и влажнoсти вoздуха измеряются на высoте 2 м в тени вдали oт зданий и деревьев.
Скoрoсть ветра измеряется на высoте 10 м (на урoвне рoста челoвека скoрoсть ветра ниже в 1.5-2 раза). Если метеoстанция нахoдится в гoрoде или в лесу, тo скoрoсть ветра занижена на 2-4 м/с пo сравнению с oткрытым местoм. Скoрoсть ветра над акватoриями крупных рек и oзёр, а также на вершинах хoлмoв на 2-5 м/с выше, чем в oбычных услoвиях.
Атмoсфернoе давление в разных тoчках местнoсти мoжет значительнo oтличаться oт давления на метеoстанции, в зависимoсти oт услoвий рельефа (при пoдъёме на 10 м давление пoнижается примернo на 1 мм рт.ст.).